Location: Eythorne
(51.1833°N, 1.2833°E)
Time: 20:12:54
(UTC+00:00)

Daily predictions for brighter satellites

Satellite Brightness Start Highest point End
(mag) Time Altitude Azimuth Time Altitude Azimuth Time Altitude Azimuth
COSMOS 2455 4.0 16:21:51 10° NW 16:27:41 51° WSW 16:33:28 10° SSE
USA 267 3.4 16:22:12 10° E 16:28:37 63° NNE 16:35:03 10° WNW
Cosmos 2322 3.8 16:23:34 10° SSW 16:29:10 65° ESE 16:34:49 10° NE
Cosmos 540 Rocket 3.7 16:24:51 10° S 16:29:50 52° ESE 16:34:48 10° NNE
Cosmos 2369 Rocket 3.9 16:27:33 10° N 16:30:38 14° NNE 16:33:42 10° ENE
Cosmos 1766 Rocket 4.1 16:27:44 10° NNW 16:32:09 66° W 16:36:30 10° S
NOSS 2-1 (E) 4.2 16:27:50 10° NW 16:32:38 73° NE 16:39:25 10° SE
Cosmos 1844 Rocket 4.4 16:27:50 10° NW 16:33:06 40° WSW 16:38:19 10° S
SJ 16-02 4.3 16:31:59 10° NW 16:35:22 22° W 16:38:44 10° SSW
Okean-O 4.4 16:34:03 10° ENE 16:35:48 12° NE 16:37:33 10° NNE
Cosmos 1743 Rocket 3.9 16:32:39 10° N 16:37:00 46° ENE 16:41:18 10° SSE
Cosmos 841 Rocket 3.6 16:32:57 10° S 16:38:06 60° ESE 16:43:14 10° NNE
CORIOLIS 4.4 16:35:12 10° SE 16:40:19 46° ENE 16:45:31 10° N
Envisat 3.0 16:35:59 10° SSE 16:41:02 76° ENE 16:46:09 10° NNW
Cosmos 1408 Rocket 3.6 16:39:08 10° N 16:43:34 88° W 16:47:56 10° S
H-2A R/B 2.5 16:39:33 10° SSE 16:43:54 76° ENE 16:48:07 10° NNW
H-2A R/B 3.0 16:41:36 10° S 16:45:24 76° WSW 16:49:18 10° NNW
Cosmos 2315 Rocket 4.4 16:41:09 10° SSW 16:47:21 69° WNW 16:53:39 10° N
H-2A R/B 3.7 16:45:22 10° E 16:47:55 14° NE 16:50:28 10° NNE
Okean O Rocket 1.8 16:44:09 10° SE 16:48:20 49° ENE 16:52:35 10° N
Nadezhda 1 Rocket 4.4 16:42:31 10° SSE 16:48:27 44° E 16:54:27 10° NNE
Sich 1 4.0 16:45:00 10° N 16:48:45 26° ENE 16:52:27 10° SE
Cosmos 2333 4.3 16:46:23 10° SSW 16:52:04 87° WNW 16:57:46 10° NNE
Cosmos 1842 Rocket 3.5 16:47:49 10° S 16:52:05 62° E 16:56:23 10° NNE
Aureole 2 Rocket 2.9 16:50:02 10° NW 16:52:40 49° WSW 16:55:25 10° S
Cosmos 405 Rocket 2.8 16:49:28 10° N 16:53:17 57° ENE 16:57:10 10° SSE
EP 1 4.3 16:52:24 10° SW 16:55:18 82° NW 16:57:36 13° NE
Cosmos 2154 Rocket 4.1 16:50:07 10° N 16:56:23 61° ENE 17:02:40 10° SSE
Cosmos 1805 Rocket 4.0 16:53:02 10° N 16:57:15 39° ENE 17:01:27 10° SE
Cosmos 1814 Rocket 4.0 16:55:38 10° SSW 17:00:57 71° ESE 17:06:15 10° NNE
YAOGAN 6 2.6 16:57:32 10° SSE 17:01:12 87° WSW 17:04:52 10° NNW
Cosmos 2341 Rocket 4.4 16:57:45 10° N 17:03:38 41° ENE 17:09:32 10° SE
Cosmos 1943 Rocket 3.3 16:59:52 10° NNW 17:04:17 23° NE 17:07:55 13° E
Cosmos 2322 Rocket 3.7 17:02:04 10° WSW 17:07:04 30° NW 17:12:02 10° NNE
SMAP 3.0 17:02:26 10° SSE 17:07:05 80° ENE 17:11:46 10° NNW
Cosmos 1570 Rocket 4.0 17:02:12 10° SSW 17:07:31 89° ESE 17:12:50 10° NNE
Radarsat 4.5 17:02:53 10° SSE 17:08:04 73° ENE 17:13:16 10° NNW
Helios 1A Rocket 4.2 17:05:16 10° ESE 17:08:07 19° ENE 17:10:59 10° NNE
SL-16 R/B 3.8 17:05:58 10° SE 17:08:52 14° E 17:09:55 14° E
USA 281 3.5 17:02:47 10° ESE 17:08:54 44° NE 17:15:03 10° NNW
CZ-4C R/B 3.3 17:09:34 10° N 17:13:10 75° WNW 17:16:47 10° SSW
CREW DRAGON DEMO-1 DEB 2.7 17:15:43 10° W 17:18:43 89° N 17:20:29 22° E
Cosmos 2285 Rocket 4.5 17:12:46 10° NNW 17:18:44 38° NE 17:24:38 10° ESE
NOSS 0 Rocket 4.1 17:12:53 10° S 17:18:55 54° ESE 17:24:40 12° NE
Cosmos 405 3.3 17:17:00 10° SSW 17:20:30 68° WNW 17:23:59 10° N
Cosmos 1606 3.5 17:17:03 10° SSE 17:20:30 31° E 17:23:04 15° NE
Cosmos 389 Rocket 3.5 17:17:41 10° SSE 17:20:31 24° E 17:21:16 22° ENE
Feng Yun 1-1 Rocket 4.4 17:14:55 10° SE 17:20:34 56° ENE 17:26:06 10° N
Cosmos 2333 Rocket 2.5 17:16:18 10° SW 17:21:59 70° WNW 17:27:41 10° NNE
CZ-2C R/B 3.7 17:17:55 10° ESE 17:22:16 29° ENE 17:26:29 10° N
Cosmos 2084 Rocket 4.3 17:19:11 10° WSW 17:23:07 41° NNW 17:26:26 14° NE
Cosmos 2327 Rocket 4.5 17:17:53 10° N 17:24:03 88° W 17:30:15 10° S
H-2A R/B 2.0 17:19:58 10° NNE 17:24:08 86° WNW 17:28:21 10° SSW
SKYMED 2 4.5 17:22:23 16° NE 17:25:00 28° E 17:28:45 10° SSE
Landsat 5 4.0 17:22:45 10° N 17:27:02 64° WNW 17:31:26 10° SSW
COSMOS 2428 2.9 17:21:29 10° SW 17:27:14 79° WNW 17:33:00 10° NNE
Cosmos 1607 4.5 17:21:04 10° WSW 17:27:19 58° NW 17:33:13 12° NE
Cosmos 1862 3.8 17:25:39 10° NNW 17:29:40 64° W 17:33:39 10° S
Cosmos 724 4.3 17:24:15 10° SW 17:30:09 87° SE 17:35:18 15° NE
Cosmos 1818 3.9 17:25:14 10° NW 17:30:41 70° SW 17:36:07 10° SSE
Cosmos 2150 Rocket 4.4 17:26:06 10° NNW 17:31:14 64° WSW 17:36:19 10° S
SL-8 Rocket 4.2 17:25:39 10° N 17:31:41 48° ENE 17:37:41 10° SSE
ADEOS Rocket 4.0 17:24:22 10° NNE 17:31:50 67° WNW 17:39:32 10° SSW
Cosmos 2278 Rocket 2.7 17:28:13 10° NW 17:33:50 63° WSW 17:39:25 10° SSE
Cosmos 1633 Rocket 3.5 17:30:51 10° N 17:34:59 38° ENE 17:39:04 10° SE
USA 215 3.5 17:32:16 20° ENE 17:36:52 53° SE 17:43:14 10° SW
Cosmos 2181 Rocket 4.4 17:32:41 10° SSE 17:38:37 41° E 17:44:31 10° NNE
CZ-4 R/B 2.0 17:37:52 22° ESE 17:39:42 33° ENE 17:43:18 10° N
SAR-Lupe-4 4.2 17:40:59 32° E 17:41:08 32° E 17:44:23 10° SSE
Meteor 1-25 Rocket 4.3 17:35:48 10° N 17:41:14 49° ENE 17:46:42 10° SE
CZ-2D R/B 3.3 17:43:32 10° SSE 17:47:14 52° ENE 17:51:00 10° N
Cosmos 2360 Rocket 3.9 17:44:00 10° W 17:48:44 27° NW 17:53:29 10° NNE
Cosmos 1125 Rocket 3.9 17:43:48 10° NNW 17:48:57 64° WSW 17:54:06 10° S
BREEZE-M DEB (TANK) 3.8 17:47:29 10° SSW 17:48:49 17° SSE 17:48:49 17° SSE
Meteor 2-12 Rocket 4.4 17:42:58 10° N 17:49:11 87° E 17:55:19 10° S
Cosmos 482 Debris 4.4 17:47:41 10° WNW 17:48:41 28° WNW 17:48:41 28° WNW
Cosmos 1356 3.2 17:47:15 10° N 17:50:42 83° ENE 17:54:07 10° SSE
Cosmos 44 3.6 17:47:27 10° NW 17:52:36 57° NE 17:55:25 27° ESE
IRS-1C Rocket 4.0 17:47:33 10° SSE 17:52:48 75° ENE 17:58:06 10° NNW
ERS-2 2.0 17:50:53 25° NNE 17:52:57 72° ESE 17:56:36 10° S
Cosmos 2221 4.0 17:49:43 10° SW 17:53:45 37° WNW 17:57:48 10° N
Cosmos 1939 Rocket 2.6 17:50:15 10° SSE 17:54:06 86° ENE 17:58:02 10° NNW
Cosmos 2219 Rocket 3.1 17:51:45 10° SW 17:57:10 46° NW 18:02:22 11° NNE
SAR-Lupe-1 4.3 17:58:34 47° ESE 17:58:34 47° ESE 18:01:51 10° S
ISS -3.0 17:55:52 10° SW 17:59:00 38° SSE 17:59:04 38° SSE
CZ-4B R/B 1.2 18:00:04 39° N 18:01:03 75° WNW 18:04:06 10° SSW
SL-16 R/B 4.4 18:00:25 10° WNW 18:03:48 16° NNW 18:07:12 10° N
Cosmos 2237 Rocket 2.1 17:59:18 10° SSW 18:04:55 86° ESE 18:08:37 23° NNE
YAOGAN 1 2.6 18:03:51 29° SE 18:05:50 53° ENE 18:10:05 10° N
Cosmos 1470 Rocket 4.0 18:05:12 10° N 18:08:28 40° NE 18:08:28 40° NE
Okean-O 2.5 18:07:06 10° SSE 18:11:30 72° ENE 18:15:56 10° N
USA 267 3.5 18:05:49 13° SE 18:11:39 70° SW 18:18:10 10° WNW
COSMO-SKYMED 1 2.4 18:10:59 28° NNE 18:13:17 79° ESE 18:17:37 10° S
SL-24 R/B 3.8 18:13:03 54° NE 18:13:48 66° E 18:17:38 10° S
USA 81 3.9 18:09:53 10° N 18:15:13 86° E 18:20:30 10° S
Cosmos 2218 Rocket 3.8 18:09:18 10° N 18:15:31 80° E 18:21:40 10° SSE
Cosmos 2369 Rocket 2.6 18:10:56 10° NNW 18:16:19 41° NE 18:16:39 40° ENE
CSL-04 Rocket 3.7 18:18:44 40° ESE 18:20:18 54° ENE 18:25:29 10° N
Cosmos 1980 3.9 18:17:14 10° SW 18:22:55 70° WNW 18:26:25 24° NNE
Okean O Rocket 4.2 18:21:35 10° SW 18:24:58 22° W 18:28:23 10° NW
H-2A R/B 2.0 18:23:36 27° SE 18:26:27 65° ENE 18:31:37 10° N
Sich 1 4.4 18:22:26 10° NNW 18:26:33 39° W 18:30:37 10° SSW
Cosmos 2366 rocket 3.9 18:21:43 10° N 18:27:59 88° W 18:34:10 10° S
PSLV R/B 4.0 18:30:53 62° S 18:30:53 62° S 18:34:18 10° SSW
Cosmos 1933 3.3 18:27:18 10° SSW 18:31:21 81° W 18:31:27 79° NW
Meteor 1-14 Rocket 4.2 18:28:18 10° N 18:34:13 71° ENE 18:38:09 22° SSE
Cosmos 1932 4.5 18:28:52 10° SW 18:35:26 89° NW 18:37:56 41° NE
Cosmos 2297 4.0 18:34:15 10° NW 18:39:53 67° WSW 18:44:22 17° SSE
Cosmos 783 Rocket 4.4 18:37:17 10° SSW 18:42:30 74° ESE 18:42:30 74° ESE
Helios 1A Rocket 3.5 18:39:38 14° S 18:42:56 55° WSW 18:46:55 10° NNW
Cosmos 1151 Rocket 3.4 18:43:04 10° SSW 18:46:45 60° SW 18:46:45 60° SW
SL-24 DEB 4.4 18:42:42 10° N 18:47:30 75° W 18:52:13 10° SSW
Cosmos 1943 Rocket 2.0 18:43:12 10° NNW 18:48:47 90° SW 18:49:30 69° SSE
Meteor 1-26 Rocket 4.2 18:44:13 10° S 18:50:13 87° ESE 18:53:29 29° NNE
Cosmos 1328 Rocket 4.4 18:45:58 10° SSW 18:48:55 43° SSW 18:48:55 43° SSW
SL-16 R/B 2.0 18:46:23 10° SSW 18:51:51 76° SE 18:51:51 76° SE
USA 281 3.9 18:46:57 10° S 18:53:19 52° WSW 18:59:44 10° NW
MOS 1 Rocket 3.5 18:53:31 80° NNE 18:53:50 87° ESE 18:59:18 10° SSW
ARGOS 3.1 18:57:17 73° N 18:57:17 73° N 19:02:12 10° NNW
CZ-2C R/B 3.9 18:57:02 10° S 19:02:00 47° W 19:06:47 10° NNW
Cosmos 2333 Rocket 4.3 19:03:10 10° W 19:07:19 20° NNW 19:10:10 14° N
Cosmos 1867 3.8 19:03:31 10° SW 19:08:14 67° WSW 19:08:14 67° WSW
CZ-4 R/B 3.3 19:13:54 25° WSW 19:14:47 27° W 19:18:12 10° NW
USA 215 3.2 19:19:37 70° N 19:20:05 73° NNW 19:26:37 10° WSW
Cosmos 1821 Rocket 4.2 19:24:32 10° NNW 19:30:01 65° NW 19:30:01 65° NW
Cosmos 2237 Rocket 4.0 19:45:08 10° W 19:49:43 25° NW 19:50:28 24° NNW
Cosmos 2369 Rocket 3.7 19:55:03 10° NW 19:58:28 33° WNW 19:58:28 33° WNW
H-2A R/B 4.2 20:04:13 18° WSW 20:06:18 22° W 20:10:22 10° NW
